Regional Weather Roundup
Issued by NWS

Home | Current Version | Previous Version | Text Only | Print | Product List | Glossary On
Versions: 1 2 3 4 5 6 7 8 9 10 11 12 13 14 15 16 17 18 19 20 21 22 23 24 25 26 27 28 29 30 31 32 33 34 35 36 37 38 39 40 41 42 43 44 45 46 47 48 49 50
881
ASUS43 KLSX 200907
RWRMO

WEATHER SUMMARY FOR MISSOURI
NATIONAL WEATHER SERVICE SPRINGFIELD MO
300 AM CST MON FEB 20 2017

NOTE: "FAIR" INDICATES FEW OR NO CLOUDS BELOW 12,000 FEET WITH NO
       SIGNIFICANT WEATHER AND/OR OBSTRUCTIONS TO VISIBILITY.
       CURRENT SKY AND/OR WEATHER CONDITIONS ARE NOT AVAILABLE FOR
       CHILLICOTHE AND FARMINGTON.

MOZ001>031-035>038-043-044-053-054-201000-
...NORTHERN AND WESTERN MISSOURI...

CITY           SKY/WX    TMP DP  RH WIND       PRES   REMARKS
KANSAS CTY INT CLOUDY    63  55  75 S18       29.84F
KANSAS C DTWN  CLOUDY    65  55  70 S12G21    29.84F
LEE`S SUMMIT   CLOUDY    62  56  80 S18       29.87F
ST JOSEPH      CLOUDY    63  56  78 SE14      29.83F
CHILLICOTHE      N/A     60  55  83 SE8       29.90F
KIRKSVILLE     CLOUDY    53  50  89 SE9       29.95F

$$
MOZ066>068-077>081-088>096-101>105-201000-
...SOUTHWEST MISSOURI...

CITY           SKY/WX    TMP DP  RH WIND       PRES   REMARKS
SPRINGFIELD    PTCLDY    60  55  83 S15       29.94F
JOPLIN         CLOUDY    67  53  61 SE17G24   29.87F
BRANSON        MOCLDY    57  55  94 SE9       29.97F

$$
MOZ032>034-039>042-045>050-055>058-069>072-201000-
...CENTRAL MISSOURI...

CITY           SKY/WX    TMP DP  RH WIND       PRES   REMARKS
COLUMBIA       PTCLDY    59  56  89 S12       29.97F
JEFFERSON CITY PTCLDY    59  54  83 E9        29.97F
ROLLA          CLOUDY    58  54  86 S9        29.99F
SEDALIA        CLEAR     61  56  83 SE13      29.92F
WHITEMAN AFB   PTCLDY    61  61 100 S14G20    29.90F
WARRENSBURG    CLOUDY    61  54  77 SE15      29.89F
OSAGE BEACH    PTCLDY    60  55  83 S10       29.97F

$$
MOZ051-052-059>065-201000-
...EAST CENTRAL MISSOURI...

CITY           SKY/WX    TMP DP  RH WIND       PRES   REMARKS
ST LOUIS INTL  MOCLDY    53  50  89 E9        30.04F
SPIRIT OF STL  FOG       45  45 100 CALM      30.03S VSB 1/4
ST CHARLES     PTCLDY    49  49 100 E10       30.04S FOG

$$
MOZ072>076-082>087-097>100-106>115-201000-
...SOUTH CENTRAL AND SOUTHEAST MISSOURI...

CITY           SKY/WX    TMP DP  RH WIND       PRES   REMARKS
CAPE GIRARDEAU CLOUDY    48  46  93 CALM      30.09R
FARMINGTON     MOCLDY    54  52  93 CALM      30.07S
POPLAR BLUFF   CLOUDY    50  50 100 CALM      30.06F FOG
WEST PLAINS    MOCLDY    56  54  93 E6        30.04F

$$



USA.gov is the U.S. government's official web portal to all federal, state and local government web resources and services.